When you browse on this site, cookies collect data to enhance your experience and personalize the content and advertising you see.
Visit our Privacy Policy to learn more. By continuing to use the site, you agree to this use of cookies and data.
  • In Spain
  • List of Countries
  • For 7 days
  • Water Temperature
  • Weather Map
  • Weather Widgets
  • user-avatar
    Login

    Hourly Weather Pitrufquen

    Today, 25 January, Saturday

    Time Temperature Precipitation Wind Pressure Humidity
    00:00 +10°C° 0 mm 0 mps 755 mmHg 89%
    01:00 +10°C° 0 mm 0 mps 756 mmHg 92%
    02:00 +9°C° 0 mm 0 mps 755 mmHg 92%
    03:00 +9°C° 0 mm 0 mps 755 mmHg 92%
    04:00 +9°C° 0 mm 0 mps 755 mmHg 91%
    05:00 +11°C° 0 mm 0 mps 755 mmHg 82%
    06:00 +13°C° 0 mm 0 mps 755 mmHg 73%
    07:00 +16°C° 0 mm 0 mps 756 mmHg 63%
    08:00 +21°C° 0 mm 1 mps 756 mmHg 55%
    09:00 +24°C° 0 mm 1 mps 755 mmHg 47%
    10:00 +26°C° 0 mm 2 mps 755 mmHg 40%
    11:00 +28°C° 0 mm 2 mps 755 mmHg 38%
    12:00 +29°C° 0 mm 3 mps 755 mmHg 37%
    13:00 +30°C° 0 mm 3 mps 754 mmHg 36%
    14:00 +29°C° 0 mm 3 mps 754 mmHg 40%
    15:00 +28°C° 0 mm 4 mps 754 mmHg 44%
    16:00 +27°C° 0 mm 4 mps 754 mmHg 47%
    17:00 +25°C° 0 mm 3 mps 754 mmHg 56%
    18:00 +22°C° 0 mm 3 mps 755 mmHg 65%
    19:00 +20°C° 0 mm 2 mps 755 mmHg 73%
    20:00 +19°C° 0 mm 2 mps 755 mmHg 81%
    21:00 +18°C° 0 mm 1 mps 756 mmHg 89%
    22:00 +16°C° 0 mm 1 mps 756 mmHg 97%
    23:00 +15°C° 0 mm 1 mps 756 mmHg 98%

    Tomorrow, 26 January, Sunday

    Time Temperature Precipitation Wind Pressure Humidity
    00:00 +14°C° 0 mm 0 mps 755 mmHg 98%
    01:00 +14°C° 0 mm 0 mps 755 mmHg 98%
    02:00 +13°C° 0 mm 0 mps 755 mmHg 98%
    03:00 +13°C° 0 mm 0 mps 755 mmHg 98%
    04:00 +13°C° 0 mm 0 mps 755 mmHg 98%
    05:00 +14°C° 0 mm 0 mps 755 mmHg 94%
    06:00 +16°C° 0 mm 0 mps 755 mmHg 89%
    07:00 +17°C° 0 mm 0 mps 756 mmHg 84%
    08:00 +21°C° 0 mm 1 mps 756 mmHg 72%
    09:00 +24°C° 0 mm 1 mps 756 mmHg 60%
    10:00 +26°C° 0 mm 1 mps 756 mmHg 48%
    11:00 +27°C° 0 mm 2 mps 756 mmHg 41%
    12:00 +29°C° 0 mm 2 mps 756 mmHg 34%
    13:00 +30°C° 0 mm 3 mps 755 mmHg 28%
    14:00 +29°C° 0 mm 3 mps 755 mmHg 31%
    15:00 +28°C° 0 mm 3 mps 755 mmHg 34%
    16:00 +28°C° 0 mm 4 mps 755 mmHg 37%
    17:00 +25°C° 0 mm 3 mps 755 mmHg 44%
    18:00 +21°C° 0 mm 2 mps 755 mmHg 51%
    19:00 +18°C° 0 mm 2 mps 755 mmHg 58%
    20:00 +16°C° 0 mm 1 mps 756 mmHg 68%
    21:00 +14°C° 0 mm 1 mps 756 mmHg 78%
    22:00 +11°C° 0 mm 0 mps 756 mmHg 88%
    23:00 +11°C° 0 mm 0 mps 756 mmHg 89%

    Day after tomorrow, 27 January, Monday

    Time Temperature Precipitation Wind Pressure Humidity
    00:00 +10°C° 0 mm 0 mps 756 mmHg 89%
    01:00 +10°C° 0 mm 0 mps 755 mmHg 90%
    02:00 +10°C° 0 mm 0 mps 755 mmHg 87%
    03:00 +9°C° 0 mm 0 mps 755 mmHg 85%
    04:00 +9°C° 0 mm 0 mps 755 mmHg 82%
    05:00 +11°C° 0 mm 0 mps 754 mmHg 72%
    06:00 +13°C° 0 mm 0 mps 754 mmHg 62%
    07:00 +16°C° 0 mm 1 mps 754 mmHg 52%
    08:00 +20°C° 0 mm 1 mps 754 mmHg 42%
    09:00 +24°C° 0 mm 1 mps 754 mmHg 32%
    10:00 +27°C° 0 mm 2 mps 754 mmHg 23%
    11:00 +28°C° 0 mm 2 mps 753 mmHg 21%
    12:00 +30°C° 0 mm 3 mps 753 mmHg 19%
    13:00 +31°C° 0 mm 3 mps 753 mmHg 17%
    14:00 +30°C° 0 mm 4 mps 752 mmHg 21%
    15:00 +29°C° 0 mm 4 mps 752 mmHg 24%
    16:00 +28°C° 0 mm 4 mps 752 mmHg 28%
    17:00 +25°C° 0 mm 3 mps 752 mmHg 37%
    18:00 +21°C° 0 mm 3 mps 753 mmHg 47%
    19:00 +19°C° 0 mm 2 mps 753 mmHg 56%
    20:00 +17°C° 0 mm 2 mps 753 mmHg 69%
    21:00 +15°C° 0 mm 1 mps 753 mmHg 81%
    22:00 +14°C° 0 mm 1 mps 753 mmHg 94%
    23:00 +14°C° 0 mm 1 mps 753 mmHg 95%

    28 January, Tuesday

    Time Temperature Precipitation Wind Pressure Humidity
    00:00 +13°C° 0 mm 0 mps 753 mmHg 96%
    01:00 +13°C° 0 mm 0 mps 752 mmHg 97%
    02:00 +13°C° 0 mm 0 mps 752 mmHg 96%
    03:00 +13°C° 0 mm 0 mps 752 mmHg 96%
    04:00 +13°C° 0 mm 0 mps 752 mmHg 95%
    05:00 +14°C° 0 mm 0 mps 752 mmHg 92%
    06:00 +15°C° 0 mm 0 mps 752 mmHg 89%
    07:00 +16°C° 0 mm 0 mps 752 mmHg 87%
    08:00 +16°C° 0 mm 0 mps 751 mmHg 83%
    09:00 +19°C° 0 mm 1 mps 751 mmHg 80%
    10:00 +20°C° 0 mm 1 mps 751 mmHg 76%
    11:00 +19°C° 0.1 mm 2 mps 751 mmHg 75%
    12:00 +19°C° 0.1 mm 2 mps 751 mmHg 73%
    13:00 +19°C° 0.1 mm 2 mps 751 mmHg 71%
    14:00 +19°C° 0 mm 3 mps 751 mmHg 64%
    15:00 +20°C° 0 mm 4 mps 752 mmHg 58%
    16:00 +21°C° 0 mm 4 mps 752 mmHg 52%
    17:00 +19°C° 0 mm 3 mps 752 mmHg 56%
    18:00 +17°C° 0 mm 3 mps 753 mmHg 61%
    19:00 +15°C° 0 mm 2 mps 753 mmHg 65%
    20:00 +14°C° 0 mm 2 mps 754 mmHg 71%
    21:00 +12°C° 0 mm 1 mps 754 mmHg 77%
    22:00 +11°C° 0 mm 1 mps 755 mmHg 83%
    23:00 +10°C° 0 mm 1 mps 755 mmHg 86%

    29 January, Wednesday

    Time Temperature Precipitation Wind Pressure Humidity
    00:00 +9°C° 0 mm 1 mps 755 mmHg 90%
    01:00 +7°C° 0 mm 0 mps 755 mmHg 94%
    02:00 +6°C° 0 mm 0 mps 755 mmHg 95%
    03:00 +6°C° 0 mm 0 mps 756 mmHg 96%
    04:00 +5°C° 0 mm 0 mps 756 mmHg 96%
    05:00 +8°C° 0 mm 1 mps 756 mmHg 89%
    06:00 +10°C° 0 mm 1 mps 756 mmHg 82%
    07:00 +11°C° 0 mm 1 mps 757 mmHg 74%
    08:00 +13°C° 0 mm 2 mps 757 mmHg 65%
    09:00 +15°C° 0 mm 2 mps 757 mmHg 55%
    10:00 +17°C° 0 mm 2 mps 757 mmHg 45%
    11:00 +19°C° 0 mm 2 mps 756 mmHg 40%
    12:00 +20°C° 0 mm 3 mps 756 mmHg 34%
    13:00 +22°C° 0 mm 3 mps 755 mmHg 28%
    14:00 +22°C° 0 mm 3 mps 755 mmHg 31%
    15:00 +21°C° 0 mm 3 mps 755 mmHg 33%
    16:00 +21°C° 0 mm 3 mps 755 mmHg 35%
    17:00 +19°C° 0 mm 3 mps 755 mmHg 44%
    18:00 +17°C° 0 mm 2 mps 755 mmHg 52%
    19:00 +14°C° 0 mm 2 mps 756 mmHg 60%
    20:00 +12°C° 0 mm 1 mps 756 mmHg 70%
    21:00 +10°C° 0 mm 1 mps 756 mmHg 80%
    22:00 +7°C° 0 mm 0 mps 757 mmHg 90%
    23:00 +7°C° 0 mm 0 mps 756 mmHg 91%

    30 January, Thursday

    Time Temperature Precipitation Wind Pressure Humidity
    00:00 +8°C° 0 mm 1 mps 756 mmHg 91%
    01:00 +7°C° 0 mm 1 mps 756 mmHg 91%
    02:00 +7°C° 0 mm 1 mps 755 mmHg 92%
    03:00 +5°C° 0 mm 0 mps 755 mmHg 93%
    04:00 +5°C° 0 mm 0 mps 755 mmHg 94%
    05:00 +7°C° 0 mm 0 mps 755 mmHg 86%
    06:00 +10°C° 0 mm 1 mps 755 mmHg 77%
    07:00 +11°C° 0 mm 1 mps 754 mmHg 69%
    08:00 +15°C° 0 mm 1 mps 754 mmHg 57%
    09:00 +19°C° 0 mm 1 mps 754 mmHg 45%
    10:00 +21°C° 0 mm 2 mps 754 mmHg 33%
    11:00 +24°C° 0 mm 2 mps 753 mmHg 32%
    12:00 +25°C° 0 mm 2 mps 753 mmHg 31%
    13:00 +27°C° 0 mm 3 mps 753 mmHg 30%
    14:00 +26°C° 0 mm 3 mps 753 mmHg 33%
    15:00 +26°C° 0 mm 3 mps 753 mmHg 36%
    16:00 +25°C° 0 mm 4 mps 753 mmHg 39%
    17:00 +22°C° 0 mm 3 mps 753 mmHg 49%
    18:00 +19°C° 0 mm 2 mps 753 mmHg 60%
    19:00 +17°C° 0 mm 2 mps 754 mmHg 71%
    20:00 +15°C° 0 mm 1 mps 754 mmHg 79%
    21:00 +14°C° 0 mm 1 mps 754 mmHg 88%
    22:00 +11°C° 0 mm 0 mps 755 mmHg 97%
    23:00 +11°C° 0 mm 0 mps 754 mmHg 97%
    Show more